This is the latest recevied weather packets stored in our database for station/object K3CHZ. If no packets are shown the sender has not sent any weather packets the latest 10 day(s).
| Time | Temp. | Humidity | Pressure | Rain* | Wind** | Luminosity | Snow |
|---|---|---|---|---|---|---|---|
| 1777559542 | 16.11° C | 69% | 1009.6 hPa | 0 mm | - | - | - |
| 1777559238 | 15.56° C | 70% | 1009.6 hPa | 0 mm | - | - | - |
| 1777558940 | 15.56° C | 73% | 1009.7 hPa | 0 mm | - | - | - |
| 1777558639 | 15.56° C | 78% | 1009.7 hPa | 0 mm | - | - | - |
| 1777558339 | 15° C | 78% | 1009.6 hPa | 0 mm | - | - | - |
| 1777558039 | 15° C | 78% | 1009.4 hPa | 0 mm | - | - | - |
| 1777557738 | 15° C | 75% | 1009.4 hPa | 0 mm | - | - | - |
| 1777557439 | 14.44° C | 79% | 1009.5 hPa | 0 mm | - | - | - |
| 1777557138 | 14.44° C | 80% | 1009.5 hPa | 0 mm | - | - | - |
| 1777556839 | 13.89° C | 81% | 1009.5 hPa | 0 mm | - | - | - |
| 1777556538 | 13.89° C | 86% | 1009.4 hPa | 0 mm | - | - | - |
| 1777556239 | 13.33° C | 90% | 1009.3 hPa | 0 mm | - | - | - |
| 1777555938 | 12.78° C | 92% | 1009.1 hPa | 0 mm | - | - | - |
| 1777555639 | 12.78° C | 91% | 1009.1 hPa | 0 mm | - | - | - |
| 1777555340 | 12.22° C | 93% | 1009 hPa | 0 mm | - | - | - |
| 1777555039 | 12.22° C | 93% | 1008.9 hPa | 0 mm | - | - | - |
| 1777554738 | 12.22° C | 96% | 1008.9 hPa | 0 mm | - | - | - |
| 1777554439 | 11.67° C | 96% | 1008.8 hPa | 0 mm | - | - | - |
| 1777554138 | 11.67° C | 97% | 1008.8 hPa | 0 mm | - | - | - |
| 1777553839 | 11.67° C | 97% | 1008.7 hPa | 0 mm | - | - | - |
| 1777553537 | 11.67° C | 97% | 1008.7 hPa | 0 mm | - | - | - |
| 1777553238 | 11.11° C | 97% | 1008.8 hPa | 0 mm | - | - | - |
| 1777552938 | 11.11° C | 97% | 1008.8 hPa | 0 mm | - | - | - |
| 1777552638 | 11.11° C | 97% | 1008.8 hPa | 0 mm | - | - | - |
| 1777552338 | 11.11° C | 97% | 1008.7 hPa | 0 mm | - | - | - |
* Rain latest hour (hover to see other rain measurements)
** Current wind speed in m/s (hover to see current wind gust speed)